User: anonymous   Login
Location: Unspecified
(0.0000°N, 0.0000°E)
Time: 02:46:21
(UTC+00:00)
Language:

GSAT 7 - Orbit

View from above orbital plane
View from above orbital plane
View from above satellite
View from above satellite

Ground track
Ground track

The orbit data is extracted from the following two-line orbital elements,

1 39234U 13044B   14296.80875255 -.00000079  00000-0  00000+0 0  3614
2 39234 000.0634 075.1626 0009243 185.9343 136.2193 01.00272640  4252
Epoch (UTC): 23 October 2014 19:24:36
Eccentricity: 0.0009243
inclination: 0.0634°
perigee height: 35747 km
apogee height: 35825 km
right ascension of ascending node: 75.1626°
argument of perigee: 185.9343°
revolutions per day: 1.00272640
mean anomaly at epoch: 136.2193°
orbit number at epoch: 425

The dashed part of the orbit path shows where the satellite is in the earth's shadow,  

DLR